Change the Weather History Date:

Friday, September 13, 2013

  Actual Average Record
Temperature  
Mean Temperature 54 °F -  
Max Temperature 61 °F 59 °F 70 °F (2014)
Min Temperature 47 °F 48 °F 44 °F (1998)
Degree Days  
Heating Degree Days 11    
Growing Degree Days 4 (Base 50)    
Moisture  
Dew Point 55 °F    
Average Humidity 95    
Maximum Humidity 100    
Minimum Humidity 84    
Precipitation  
Precipitation 0.08 in - - ()
Sea Level Pressure  
Sea Level Pressure 30.10 in    
Wind  
Wind Speed 6 mph ()    
Max Wind Speed 13 mph    
Max Gust Speed -    
Visibility 3.9 miles    
Events Rain    
Averages and records for this station are not official NWS values.
T = Trace of Precipitation, MM = Missing Value Source: Averaged Metar Reports

Daily Weather History Graph

Daily Weather History Graph

Search for Another Location

Airport or City:

Trip Planner

Search our weather history database for the weather conditions in past years. The results will help you decide how hot, cold, wet, or windy it might be!

Date:

Astronomy

Sep. 13, 2013 Rise Set
Actual Time 7:17 AM CEST 8:02 PM CEST
Civil Twilight 6:44 AM CEST 8:35 PM CEST
Nautical Twilight 6:04 AM CEST 9:15 PM CEST
Astronomical Twilight 5:22 AM CEST 9:57 PM CEST
Moon 4:05 PM CEST (9/13) 12:03 AM CEST (9/13)
Length of Visible Light 13h 51m
Length of Day
12h 45m
First Quarter, 58% of the Moon is Illuminated
Sep 13
First Quarter
Sep 19
Full
Sep 27
Last Quarter
Oct 5
New
Oct 12
First Quarter

Hourly Weather History & Observations

Time (CEST) Temp. Dew Point Humidity Pressure Visibility Wind Dir Wind Speed Gust Speed Precip Events Conditions
12:05 AM 55.4 °F 53.6 °F 94% 30.12 in 3.7 mi Variable 2.3 mph - N/A   Mostly Cloudy
12:06 AM 55.4 °F 53.6 °F 94% 30.12 in 2.5 mi Variable 2.3 mph - N/A   Mostly Cloudy
12:17 AM 55.4 °F 51.8 °F 88% 30.12 in 6.2 mi Variable 2.3 mph - N/A   Scattered Clouds
12:25 AM 53.6 °F 51.8 °F 94% 30.12 in 5.0 mi SSW 3.5 mph - N/A   Partly Cloudy
12:34 AM 53.6 °F 51.8 °F 94% 30.12 in 4.3 mi SSW 3.5 mph - N/A   Unknown
1:20 AM 51.8 °F 50.0 °F 94% 30.12 in - SSW 4.6 mph - N/A   Mostly Cloudy
1:25 AM 51.8 °F 50.0 °F 94% 30.12 in 3.7 mi SSW 4.6 mph - N/A   Scattered Clouds
2:00 AM 51 °F 50 °F 93% 30.14 in 4 mi 2.2 mph - -  
2:25 AM 50.0 °F 50.0 °F 100% 30.12 in 3.7 mi SSW 4.6 mph - N/A   Unknown
2:45 AM 50.0 °F 48.2 °F 94% 30.12 in - SSW 4.6 mph - N/A   Unknown
3:14 AM 50.0 °F 48.2 °F 94% 30.12 in 3.1 mi South 4.6 mph - N/A   Unknown
3:24 AM 48.2 °F 48.2 °F 100% 30.12 in - SSW 4.6 mph - N/A   Unknown
3:25 AM 50.0 °F 48.2 °F 94% 30.12 in 3.1 mi SSW 4.6 mph - N/A   Unknown
3:44 AM 48.2 °F 48.2 °F 100% 30.12 in - South 4.6 mph - N/A   Unknown
4:25 AM 48.2 °F 48.2 °F 100% 30.12 in - Variable 2.3 mph - N/A   Unknown
4:34 AM 48.2 °F 46.4 °F 93% 30.12 in - Variable 1.2 mph - N/A   Unknown
5:00 AM 47 °F 47 °F 98% 30.14 in 3 mi 2.2 mph - -   Mist
5:06 AM 48.2 °F 46.4 °F 93% 30.12 in - South 3.5 mph - N/A   Unknown
5:25 AM 48.2 °F 48.2 °F 100% 30.12 in 2.5 mi South 5.8 mph - N/A   Unknown
5:34 AM 48.2 °F 46.4 °F 93% 30.12 in 1.8 mi South 5.8 mph - N/A   Unknown
6:25 AM 48.2 °F 46.4 °F 93% 30.12 in 1.2 mi South 4.6 mph - N/A   Unknown
7:25 AM 48.2 °F 46.4 °F 93% 30.12 in 1.4 mi South 3.5 mph - N/A   Partly Cloudy
8:25 AM 50.0 °F 50.0 °F 100% 30.12 in - SSW 5.8 mph - N/A   Scattered Clouds
8:53 AM 51.8 °F 50.0 °F 94% 30.12 in 3.1 mi South 8.1 mph - N/A   Mostly Cloudy
8:57 AM 51.8 °F 50.0 °F 94% 30.12 in - South 9.2 mph - N/A   Mostly Cloudy
9:25 AM 53.6 °F 51.8 °F 94% 30.12 in 3.7 mi South 9.2 mph - N/A   Mostly Cloudy
10:25 AM 55.4 °F 53.6 °F 94% 30.12 in 3.7 mi South 6.9 mph - N/A   Mostly Cloudy
10:34 AM 55.4 °F 53.6 °F 94% 30.12 in 3.7 mi South 8.1 mph - N/A   Mostly Cloudy
11:00 AM 56 °F 55 °F 96% 30.14 in 3 mi South 8.9 mph - - Rain Light Rain
11:25 AM 57.2 °F 55.4 °F 94% 30.12 in 3.1 mi SSW 10.4 mph - N/A   Mostly Cloudy
11:44 AM 57.2 °F 55.4 °F 94% 30.12 in 3.7 mi SSW 10.4 mph - N/A   Mostly Cloudy
12:04 PM 59.0 °F 55.4 °F 88% 30.12 in 5.0 mi South 11.5 mph - N/A   Mostly Cloudy
12:05 PM 59.0 °F 55.4 °F 88% 30.12 in 4.3 mi South 11.5 mph - N/A   Mostly Cloudy
12:25 PM 59.0 °F 55.4 °F 88% 30.12 in 6.2 mi SSW 11.5 mph - N/A   Mostly Cloudy
12:44 PM 59.0 °F 55.4 °F 88% 30.12 in 4.3 mi SSW 12.7 mph - N/A   Mostly Cloudy
12:56 PM 59.0 °F 55.4 °F 88% 30.12 in 6.2 mi SSW 11.5 mph - N/A   Mostly Cloudy
1:18 PM 59.0 °F 57.2 °F 94% 30.12 in 4.3 mi SSW 11.5 mph - N/A   Mostly Cloudy
1:25 PM 59.0 °F 55.4 °F 88% 30.12 in 5.0 mi South 10.4 mph - N/A   Mostly Cloudy
1:36 PM 59.0 °F 55.4 °F 88% 30.12 in 4.3 mi South 10.4 mph - N/A   Mostly Cloudy
1:42 PM 59.0 °F 55.4 °F 88% 30.12 in 5.6 mi South 11.5 mph - N/A   Mostly Cloudy
2:00 PM 60 °F 56 °F 84% 30.14 in 5 mi SSW 11.2 mph - -   Clear
2:25 PM 59.0 °F 57.2 °F 94% 30.12 in 4.3 mi South 11.5 mph - N/A   Mostly Cloudy
2:54 PM 59.0 °F 57.2 °F 94% 30.12 in - South 10.4 mph - N/A   Overcast
3:06 PM 59.0 °F 57.2 °F 94% 30.12 in - South 12.7 mph - N/A   Mostly Cloudy
3:14 PM 59.0 °F 57.2 °F 94% 30.12 in 2.2 mi South 12.7 mph - N/A   Overcast
3:25 PM 59.0 °F 57.2 °F 94% 30.12 in - South 11.5 mph - N/A   Mostly Cloudy
3:34 PM 59.0 °F 59.0 °F 100% 30.09 in - South 10.4 mph - N/A   Mostly Cloudy
4:14 PM 59.0 °F 59.0 °F 100% 30.09 in 3.1 mi SSW 11.5 mph - N/A   Mostly Cloudy
4:20 PM 59.0 °F 59.0 °F 100% 30.09 in - SSW 10.4 mph - N/A   Mostly Cloudy
4:25 PM 59.0 °F 59.0 °F 100% 30.09 in 2.5 mi SSW 9.2 mph - N/A   Mostly Cloudy
4:56 PM 59.0 °F 59.0 °F 100% 30.09 in - South 9.2 mph - N/A   Mostly Cloudy
5:00 PM 59 °F 58 °F 97% 30.09 in 2 mi South 8.9 mph - - Rain Light Rain
5:14 PM 59.0 °F 59.0 °F 100% 30.09 in 3.1 mi SSW 10.4 mph - N/A   Mostly Cloudy
5:17 PM 59.0 °F 59.0 °F 100% 30.09 in 3.7 mi SSW 10.4 mph - N/A   Mostly Cloudy
5:25 PM 59.0 °F 59.0 °F 100% 30.09 in 5.0 mi South 10.4 mph - N/A   Mostly Cloudy
5:52 PM 60.8 °F 59.0 °F 94% 30.06 in 6.2 mi SSW 9.2 mph - N/A   Mostly Cloudy
6:07 PM 60.8 °F 59.0 °F 94% 30.06 in 6.2 mi SSW 10.4 mph - N/A   Overcast
6:25 PM 59.0 °F 59.0 °F 100% 30.06 in 3.1 mi SSW 11.5 mph - N/A   Overcast
7:25 PM 60.8 °F 59.0 °F 94% 30.06 in - SSW 10.4 mph - N/A   Mostly Cloudy
7:44 PM 60.8 °F 59.0 °F 94% 30.06 in 3.1 mi SSW 10.4 mph - N/A   Mostly Cloudy
8:00 PM 60 °F 60 °F 98% 30.06 in 5 mi SSW 11.2 mph - -   Clear
8:07 PM 60.8 °F 59.0 °F 94% 30.06 in 5.0 mi SSW 10.4 mph - N/A   Mostly Cloudy
8:25 PM 60.8 °F 59.0 °F 94% 30.06 in - SSW 9.2 mph - N/A   Mostly Cloudy
9:14 PM 60.8 °F 60.8 °F 100% 30.06 in 3.1 mi SSW 8.1 mph - N/A   Mostly Cloudy
9:25 PM 60.8 °F 60.8 °F 100% 30.06 in 3.7 mi SSW 8.1 mph - N/A   Mostly Cloudy
9:52 PM 60.8 °F 60.8 °F 100% 30.06 in 3.1 mi SSW 9.2 mph - N/A   Mostly Cloudy
10:25 PM 60.8 °F 60.8 °F 100% 30.06 in 3.7 mi SSW 8.1 mph - N/A   Mostly Cloudy
11:00 PM 61 °F 60 °F 97% 30.06 in 5 mi SW 6.7 mph - -   Clear
11:17 PM 60.8 °F 60.8 °F 100% 30.04 in 5.0 mi SW 8.1 mph - N/A   Mostly Cloudy
11:20 PM 60.8 °F 60.8 °F 100% 30.04 in 4.3 mi SW 9.2 mph - N/A   Mostly Cloudy
11:25 PM 60.8 °F 60.8 °F 100% 30.04 in 5.0 mi SSW 9.2 mph - N/A   Mostly Cloudy
11:34 PM 60.8 °F 60.8 °F 100% 30.04 in 3.7 mi SSW 9.2 mph - N/A   Mostly Cloudy